This demonstration page uses our WeatherBlox Daily Observations layout. Learn more.

Left ArrowRight Arrow

39.01783, -85.05884

Hourly Observations for February 21, 2017

Temp ( °F °C ) Dew Point ( °F °C ) Humidity (%) Winds ( mph kmh ) Pressure ( in mb ) Visibility ( mi km ) Precip ( " mm )
12:52 am 00:52 Cloudy 53 11.7 39 3.9 59 59 SSE 9 15 30.03 1017 10 16 0.00 0.00
1:52 am 01:52 Mostly Cloudy 53 11.7 39 3.9 59 59 SE 7 11 30.02 1017 10 16 0.00 0.00
2:52 am 02:52 Cloudy 53 11.7 40 4.4 61 61 SE 6 9 30.01 1016 10 16 0.00 0.00
3:52 am 03:52 Cloudy 50 10 40 4.4 68 68 SE 6 9 30.01 1016 10 16 0.00 0.00
4:52 am 04:52 Cloudy 51 10.6 41 5 69 69 S 7 11 30.00 1016 10 16 0.00 0.00
5:52 am 05:52 Mostly Cloudy 50 10 41 5 71 71 S 8 13 30.00 1016 10 16 0.00 0.00
6:52 am 06:52 Mostly Cloudy 52 11.1 42 5.6 69 69 S 7 11 30.00 1016 10 16 0.00 0.00
7:52 am 07:52 Cloudy 51 10.6 42 5.6 71 71 SSW 7 11 30.03 1017 10 16 0.00 0.00
8:52 am 08:52 Cloudy 55 12.8 45 7.2 69 69 S 7 11 30.02 1017 10 16 0.00 0.00
9:52 am 09:52 Cloudy 61 16.1 46 7.8 58 58 SSW 9 15 30.01 1016 10 16 0.00 0.00
10:52 am 10:52 Sunny 64 17.8 46 7.8 52 52 SSW 9 15 30.01 1016 10 16 0.00 0.00
11:52 am 11:52 Cloudy 65 18.3 47 8.3 52 52 SW 8 13 30.00 1016 10 16 0.00 0.00
12:52 pm 12:52 Cloudy 65 18.3 47 8.3 52 52 SSW 8 13 29.98 1015 10 16 0.00 0.00
1:52 pm 13:52 Cloudy 67 19.4 49 9.4 53 53 SSW 7 11 29.98 1015 10 16 0.00 0.00
2:52 pm 14:52 Cloudy 67 19.4 49 9.4 53 53 SSW 6 9 29.96 1014 10 16 0.00 0.00
3:52 pm 15:52 Cloudy 67 19.4 50 10 55 55 NW 3 6 29.94 1014 10 16 0.00 0.00
4:30 pm 16:30 Cloudy with Rain 62 16.7 53 11.7 73 73 SW 10 17 29.97 1015 2 3 0.00 0.03
4:52 pm 16:52 Cloudy with Light Rain 59 15 56 13.3 90 90 WSW 5 7 29.96 1015 3 5 0.08 2.03
5:52 pm 17:52 Cloudy with Light Rain 58 14.4 56 13.3 93 93 NNW 7 11 29.98 1015 3 5 0.03 0.76
6:39 pm 18:39 Cloudy with Light Rain 56 13.3 55 12.8 97 97 N 6 9 30.00 1016 6 10 0.04 1.02
6:52 pm 18:52 Cloudy with Light Rain 56 13.3 55 12.8 97 97 Calm 29.98 1015 6 10 0.05 1.27
7:52 pm 19:52 Cloudy with Light Rain 56 13.3 55 12.8 97 97 ESE 6 9 29.98 1015 5 8 0.03 0.76
8:52 pm 20:52 Cloudy with Light Rain 56 13.3 55 12.8 97 97 ESE 3 6 29.98 1015 4 6 0.02 0.51
9:52 pm 21:52 Cloudy with Rain 56 13.3 56 13.3 100 100 SE 9 15 29.97 1015 3 5 0.03 0.76
10:52 pm 22:52 Cloudy with Light Rain 56 13.3 55 12.8 97 97 S 5 7 29.96 1015 3 5 0.05 1.27
11:52 pm 23:52 Cloudy with Drizzle 55 12.8 55 12.8 100 100 S 7 11 29.95 1014 3 4 0.00 0.03

Powered by AerisWeather